When you browse on this site, cookies collect data to enhance your experience and personalize the content and advertising you see.
Visit our Privacy Policy to learn more. By continuing to use the site, you agree to this use of cookies and data.
  • In Hungary
  • List of Countries
  • For 7 days
  • Water Temperature
  • Satellite Maps
  • Weather Map
  • News
  • Weather Widgets
  • user-avatar
    Login

    Hourly Weather Palermo

    Today, 19 December, Wednesday

    Time Temperature Precipitation Wind Pressure Humidity
    00:00 +9°C° 0 mm 2 mps 766 mmHg 81%
    01:00 +9°C° 0 mm 2 mps 766 mmHg 81%
    02:00 +9°C° 0 mm 2 mps 766 mmHg 80%
    03:00 +9°C° 0 mm 2 mps 766 mmHg 80%
    04:00 +9°C° 0 mm 2 mps 766 mmHg 79%
    05:00 +9°C° 0 mm 2 mps 766 mmHg 79%
    06:00 +9°C° 0 mm 2 mps 766 mmHg 78%
    07:00 +9°C° 0 mm 1 mps 766 mmHg 77%
    08:00 +11°C° 0 mm 1 mps 766 mmHg 71%
    09:00 +13°C° 0 mm 1 mps 766 mmHg 64%
    10:00 +13°C° 0 mm 0 mps 766 mmHg 58%
    11:00 +15°C° 0 mm 1 mps 766 mmHg 54%
    12:00 +16°C° 0 mm 1 mps 766 mmHg 51%
    13:00 +16°C° 0 mm 1 mps 766 mmHg 48%
    14:00 +16°C° 0 mm 1 mps 766 mmHg 52%
    15:00 +15°C° 0 mm 1 mps 765 mmHg 57%
    16:00 +15°C° 0 mm 1 mps 765 mmHg 61%
    17:00 +14°C° 0 mm 1 mps 765 mmHg 65%
    18:00 +12°C° 0 mm 1 mps 765 mmHg 69%
    19:00 +11°C° 0 mm 1 mps 765 mmHg 73%
    20:00 +11°C° 0 mm 1 mps 765 mmHg 73%
    21:00 +10°C° 0 mm 2 mps 765 mmHg 72%
    22:00 +10°C° 0 mm 2 mps 765 mmHg 72%
    23:00 +10°C° 0 mm 2 mps 765 mmHg 69%

    Tomorrow, 20 December, Thursday

    Time Temperature Precipitation Wind Pressure Humidity
    00:00 +10°C° 0 mm 3 mps 765 mmHg 67%
    01:00 +10°C° 0 mm 3 mps 765 mmHg 64%
    02:00 +10°C° 0 mm 3 mps 765 mmHg 65%
    03:00 +10°C° 0 mm 3 mps 765 mmHg 66%
    04:00 +10°C° 0 mm 3 mps 765 mmHg 68%
    05:00 +10°C° 0 mm 3 mps 765 mmHg 70%
    06:00 +10°C° 0 mm 3 mps 765 mmHg 73%
    07:00 +10°C° 0 mm 3 mps 765 mmHg 76%
    08:00 +12°C° 0 mm 3 mps 766 mmHg 73%
    09:00 +13°C° 0 mm 3 mps 766 mmHg 70%
    10:00 +16°C° 0 mm 3 mps 766 mmHg 67%
    11:00 +17°C° 0 mm 3 mps 766 mmHg 66%
    12:00 +17°C° 0 mm 3 mps 766 mmHg 65%
    13:00 +18°C° 0 mm 3 mps 765 mmHg 64%
    14:00 +18°C° 0.1 mm 3 mps 765 mmHg 68%
    15:00 +17°C° 0.1 mm 3 mps 765 mmHg 73%
    16:00 +16°C° 0.1 mm 3 mps 766 mmHg 77%
    17:00 +16°C° 0.1 mm 3 mps 766 mmHg 80%
    18:00 +15°C° 0.1 mm 2 mps 766 mmHg 84%
    19:00 +14°C° 0.1 mm 2 mps 766 mmHg 87%
    20:00 +13°C° 0 mm 2 mps 767 mmHg 88%
    21:00 +13°C° 0 mm 2 mps 767 mmHg 88%
    22:00 +13°C° 0 mm 2 mps 767 mmHg 89%
    23:00 +13°C° 0 mm 2 mps 767 mmHg 88%

    Day after tomorrow, 21 December, Friday

    Time Temperature Precipitation Wind Pressure Humidity
    00:00 +13°C° 0 mm 2 mps 767 mmHg 88%
    01:00 +12°C° 0 mm 2 mps 767 mmHg 88%
    02:00 +12°C° 0 mm 1 mps 768 mmHg 87%
    03:00 +12°C° 0 mm 1 mps 768 mmHg 86%
    04:00 +12°C° 0 mm 1 mps 768 mmHg 86%
    05:00 +12°C° 0 mm 1 mps 768 mmHg 86%
    06:00 +12°C° 0 mm 2 mps 768 mmHg 86%
    07:00 +12°C° 0 mm 2 mps 769 mmHg 87%
    08:00 +13°C° 0 mm 2 mps 769 mmHg 81%
    09:00 +14°C° 0 mm 2 mps 769 mmHg 76%
    10:00 +16°C° 0 mm 2 mps 770 mmHg 70%
    11:00 +16°C° 0 mm 2 mps 770 mmHg 67%
    12:00 +16°C° 0 mm 3 mps 769 mmHg 64%
    13:00 +17°C° 0 mm 3 mps 769 mmHg 60%
    14:00 +16°C° 0 mm 3 mps 769 mmHg 62%
    15:00 +16°C° 0 mm 3 mps 769 mmHg 65%
    16:00 +15°C° 0 mm 2 mps 769 mmHg 67%
    17:00 +14°C° 0 mm 2 mps 770 mmHg 71%
    18:00 +13°C° 0 mm 2 mps 770 mmHg 75%
    19:00 +12°C° 0 mm 2 mps 770 mmHg 78%
    20:00 +12°C° 0 mm 2 mps 770 mmHg 79%
    21:00 +10°C° 0 mm 2 mps 771 mmHg 80%
    22:00 +10°C° 0 mm 2 mps 771 mmHg 80%
    23:00 +10°C° 0 mm 2 mps 770 mmHg 81%

    22 December, Saturday

    Time Temperature Precipitation Wind Pressure Humidity
    00:00 +10°C° 0 mm 2 mps 770 mmHg 81%
    01:00 +10°C° 0 mm 2 mps 770 mmHg 81%
    02:00 +10°C° 0 mm 2 mps 770 mmHg 81%
    03:00 +10°C° 0 mm 2 mps 770 mmHg 82%
    04:00 +9°C° 0 mm 2 mps 769 mmHg 82%
    05:00 +9°C° 0 mm 2 mps 769 mmHg 82%
    06:00 +9°C° 0 mm 2 mps 770 mmHg 82%
    07:00 +9°C° 0 mm 3 mps 770 mmHg 82%
    08:00 +11°C° 0 mm 3 mps 770 mmHg 76%
    09:00 +13°C° 0 mm 3 mps 770 mmHg 71%
    10:00 +14°C° 0 mm 3 mps 770 mmHg 66%
    11:00 +16°C° 0 mm 3 mps 769 mmHg 64%
    12:00 +17°C° 0 mm 4 mps 769 mmHg 61%
    13:00 +17°C° 0 mm 4 mps 769 mmHg 59%
    14:00 +17°C° 0 mm 4 mps 769 mmHg 64%
    15:00 +15°C° 0 mm 4 mps 768 mmHg 68%
    16:00 +15°C° 0 mm 4 mps 768 mmHg 72%
    17:00 +14°C° 0 mm 4 mps 768 mmHg 76%
    18:00 +13°C° 0 mm 4 mps 768 mmHg 81%
    19:00 +12°C° 0 mm 3 mps 768 mmHg 85%
    20:00 +12°C° 0 mm 3 mps 768 mmHg 85%
    21:00 +12°C° 0 mm 3 mps 769 mmHg 85%
    22:00 +12°C° 0 mm 3 mps 769 mmHg 86%
    23:00 +12°C° 0 mm 3 mps 768 mmHg 85%

    23 December, Sunday

    Time Temperature Precipitation Wind Pressure Humidity
    00:00 +12°C° 0 mm 3 mps 768 mmHg 85%
    01:00 +12°C° 0 mm 3 mps 768 mmHg 85%
    02:00 +12°C° 0 mm 3 mps 767 mmHg 84%
    03:00 +12°C° 0 mm 3 mps 767 mmHg 84%
    04:00 +12°C° 0 mm 3 mps 767 mmHg 83%
    05:00 +12°C° 0 mm 3 mps 767 mmHg 83%
    06:00 +12°C° 0 mm 3 mps 767 mmHg 83%
    07:00 +12°C° 0 mm 3 mps 767 mmHg 83%
    08:00 +13°C° 0 mm 3 mps 768 mmHg 78%
    09:00 +16°C° 0 mm 3 mps 768 mmHg 74%
    10:00 +17°C° 0 mm 3 mps 768 mmHg 70%
    11:00 +18°C° 0 mm 3 mps 768 mmHg 67%
    12:00 +19°C° 0 mm 3 mps 767 mmHg 64%
    13:00 +20°C° 0 mm 3 mps 767 mmHg 62%
    14:00 +19°C° 0 mm 3 mps 767 mmHg 66%
    15:00 +18°C° 0 mm 3 mps 767 mmHg 71%
    16:00 +18°C° 0 mm 3 mps 767 mmHg 76%
    17:00 +17°C° 0 mm 3 mps 767 mmHg 79%
    18:00 +16°C° 0 mm 3 mps 767 mmHg 83%
    19:00 +14°C° 0 mm 3 mps 767 mmHg 86%
    20:00 +14°C° 0 mm 3 mps 767 mmHg 86%
    21:00 +13°C° 0 mm 3 mps 767 mmHg 85%
    22:00 +13°C° 0 mm 3 mps 767 mmHg 85%
    23:00 +13°C° 0 mm 3 mps 767 mmHg 84%

    24 December, Monday

    Time Temperature Precipitation Wind Pressure Humidity
    00:00 +13°C° 0 mm 3 mps 767 mmHg 84%
    01:00 +13°C° 0 mm 3 mps 767 mmHg 84%
    02:00 +13°C° 0 mm 3 mps 767 mmHg 83%
    03:00 +13°C° 0 mm 3 mps 766 mmHg 83%
    04:00 +13°C° 0 mm 3 mps 766 mmHg 83%
    05:00 +13°C° 0 mm 3 mps 766 mmHg 83%
    06:00 +13°C° 0 mm 3 mps 766 mmHg 83%
    07:00 +13°C° 0 mm 3 mps 766 mmHg 83%
    08:00 +14°C° 0 mm 3 mps 767 mmHg 79%
    09:00 +16°C° 0 mm 3 mps 767 mmHg 75%
    10:00 +18°C° 0 mm 2 mps 767 mmHg 71%
    11:00 +19°C° 0 mm 3 mps 766 mmHg 68%
    12:00 +19°C° 0 mm 3 mps 766 mmHg 66%
    13:00 +20°C° 0 mm 3 mps 766 mmHg 63%
    14:00 +19°C° 0 mm 3 mps 765 mmHg 68%
    15:00 +19°C° 0 mm 3 mps 765 mmHg 72%
    16:00 +18°C° 0 mm 3 mps 765 mmHg 77%
    17:00 +17°C° 0 mm 3 mps 765 mmHg 81%
    18:00 +16°C° 0 mm 3 mps 765 mmHg 85%
    19:00 +14°C° 0 mm 2 mps 765 mmHg 89%
    20:00 +14°C° 0 mm 2 mps 765 mmHg 88%
    21:00 +14°C° 0 mm 2 mps 765 mmHg 87%
    22:00 +14°C° 0 mm 2 mps 765 mmHg 86%
    23:00 +14°C° 0 mm 2 mps 765 mmHg 86%
    Show more